Flag for Canada Weather past 2 weeks in Laval, Quebec, Canada

Now
7 °F

Scattered clouds.


Feels Like: -6 °F
Forecast: 1 / 15 °F
Wind: 8 mph from North

Location: Montreal / Mirabel

Current Time: Mar 5, 2015 at 10:04:36 AM

Latest Report: Mar 5, 2015 at 9:00 AM


Visibility: 35 mi

Pressure: 30.23 "Hg

Humidity: 43%

Dew point: -11 °F

Location of LavalLocation

Historic Weather in Laval — Graph

°F

Laval temperature yesterday

Maximum temperature yesterday: 34 °F (at 1:00 PM)
Minimum temperature yesterday: 23 °F (at 12:00 AM)
Average temperature yesterday: 28 °F

Past Weeks' High & Low Weather Summary

 TemperatureHumidityPressure
High34 °F (Mar 4, 1:00 PM)93% (Feb 22, 9:50 PM)30.73 "Hg (Feb 22, 9:50 PM)
Low-18 °F (Feb 24, 7:00 AM)35% (Mar 2, 6:00 PM)29.54 "Hg (Mar 4, 1:00 AM)
Average9 °F63%30.10 "Hg
* Reported Feb 18 9:00 AM — Mar 5 9:00 AM, Laval, Weather by CustomWeather, © 2015

Note: Actual official high and low records may vary slightly from our data, if they occured in-between our weather recording intervals... More about our weather records

Advertising

Laval weather history for previous 24 hours

 ConditionsComfort  
Time TempWeatherWind HumidityBarometerVisibility
9:00 AM
Thu, Mar 5
7 °FScattered clouds.8 mph43%30.23 "Hg35 mi
8:00 AM7 °FPartly sunny.13 mph47%30.23 "Hg35 mi
7:00 AM5 °FPassing clouds.10 mph51%30.16 "Hg25 mi
6:00 AM9 °FPassing clouds.14 mph43%30.11 "Hg25 mi
5:00 AM10 °FPassing clouds.7 mph40%30.08 "Hg25 mi
4:00 AM12 °FPassing clouds.10 mph44%30.04 "Hg25 mi
3:00 AM14 °FPassing clouds.14 mph52%30.01 "Hg25 mi
2:00 AM18 °FPassing clouds.16 mph49%29.96 "Hg25 mi
1:00 AM21 °FPassing clouds.7 mph63%29.93 "Hg25 mi
12:00 AM21 °FPassing clouds.3 mph45%29.88 "Hg25 mi
11:00 PM
Wed, Mar 4
25 °FPassing clouds.10 mph39%29.86 "Hg25 mi
10:00 PM25 °FPassing clouds.10 mph42%29.83 "Hg25 mi
9:00 PM27 °FPassing clouds.12 mph39%29.76 "Hg25 mi
8:00 PM30 °FPassing clouds.13 mph37%29.76 "Hg25 mi
7:00 PM30 °FPassing clouds.13 mph40%29.73 "Hg25 mi
6:00 PM32 °FPassing clouds.9 mph40%29.71 "Hg25 mi
5:00 PM34 °FPartly sunny.12 mph48%29.70 "Hg25 mi
4:00 PM34 °FBroken clouds.15 mph48%29.69 "Hg25 mi
3:00 PM34 °FBroken clouds.16 mph48%29.69 "Hg25 mi
2:00 PM34 °FSnow flurries. Partly sunny.15 mph51%29.68 "Hg25 mi
1:00 PM34 °FSnow flurries. Partly sunny.15 mph56%29.70 "Hg20 mi
12:00 PM32 °FSnow flurries. Broken clouds.13 mph64%29.72 "Hg20 mi
11:00 AM30 °FPartly sunny.13 mph69%29.71 "Hg15 mi
10:00 AM28 °FLight snow. Partly sunny.12 mph80%29.71 "Hg6 mi
Weather by CustomWeather, © 2015

See weather overviewHow to use our weather pages